CARTOSAT-2C             
1 41599U 16040A   19265.11909808  .00000168  00000-0  11235-4 0  9999
2 41599  97.4890 322.6401 0015311  69.0778  14.5202 15.19207443180204
SATHYABAMASAT           
1 41600U 16040B   19264.72838904  .00001028  00000-0  45689-4 0  9992
2 41600  97.3604 325.5718 0015287  61.5994 298.6782 15.23672809180431
SKYSAT-C1               
1 41601U 16040C   19265.11975479  .00000356  00000-0  17888-4 0  9999
2 41601  97.3868 342.4398 0001208 108.0503 339.5425 15.23406362180592
GHGSAT-D                
1 41602U 16040D   19265.16359640  .00000459  00000-0  22650-4 0  9998
2 41602  97.3505 324.7316 0010614  64.6116 295.6218 15.22651598180495
LAPAN-A3                
1 41603U 16040E   19265.11701875 -.00000001  00000-0  30815-5 0  9992
2 41603  97.3508 321.4266 0014981  67.4507  16.1905 15.19742328180232
BIROS                   
1 41604U 16040F   19264.74662618  .00000254  00000-0  14189-4 0  9996
2 41604  97.3551 323.9554 0013793  57.0077 303.2483 15.21784043180352
M3MSAT                  
1 41605U 16040G   19264.76538429  .00000288  00000-0  15957-4 0  9992
2 41605  97.3547 323.0384 0013764  68.1432 292.1266 15.21133335180296
FLOCK 2P-6              
1 41606U 16040H   19264.41272215  .00000972  00000-0  40903-4 0  9992
2 41606  97.3617 327.8184 0011493  54.2242 306.0063 15.25712135180573
SWAYAM                  
1 41607U 16040J   19264.71286152  .00000967  00000-0  43375-4 0  9991
2 41607  97.3567 324.9533 0014832  61.2860 298.9865 15.23485067180341
FLOCK 2P-11             
1 41608U 16040K   19264.76782423  .00002035  00000-0  79787-4 0  9993
2 41608  97.3587 328.4194 0010966  51.5386 308.6835 15.26851063180594
FLOCK 2P-2              
1 41609U 16040L   19264.71637377  .00001391  00000-0  57356-4 0  9998
2 41609  97.3614 328.0229 0011281  53.6113 306.6164 15.25688057180530
FLOCK 2P-9              
1 41610U 16040M   19264.66626235  .00000955  00000-0  40338-4 0  9992
2 41610  97.3615 327.9023 0011769  53.0325 307.1989 15.25620173180405
FLOCK 2P-4              
1 41611U 16040N   19264.75890839  .00001735  00000-0  69320-4 0  9995
2 41611  97.3636 328.7768 0011396  60.3186 299.9185 15.26418379180608
FLOCK 2P-10             
1 41612U 16040P   19264.84665489  .00000860  00000-0  36527-4 0  9998
2 41612  97.3651 328.7739 0011656  61.6973 298.5440 15.25678778180600
FLOCK 2P-8              
1 41613U 16040Q   19264.16758553  .00000881  00000-0  37454-4 0  9992
2 41613  97.3647 327.9414 0011970  62.6676 297.5779 15.25602926180490
FLOCK 2P-12             
1 41614U 16040R   19264.71699302  .00000762  00000-0  32782-4 0  9997
2 41614  97.3657 328.7383 0011679  62.0039 298.2380 15.25602183180580
FLOCK 2P-7              
1 41615U 16040S   19265.14034542  .00002035  00000-0  80139-4 0  9999
2 41615  97.3609 329.0903 0011173  59.5375 300.6966 15.26707644180669
FLOCK 2P-5              
1 41616U 16040T   19265.12148265  .00001643  00000-0  67248-4 0  9996
2 41616  97.3658 329.1110 0011436  60.0716 300.1656 15.25678814180625
FLOCK 2P-1              
1 41617U 16040U   19264.32913176  .00001449  00000-0  58476-4 0  9996
2 41617  97.3643 328.4819 0011229  62.2788 297.9589 15.26359734180537
FLOCK 2P-3              
1 41618U 16040V   19264.74155494  .00000779  00000-0  33435-4 0  9997
2 41618  97.3662 328.7166 0011479  61.2384 299.0006 15.25613673180581
BEESAT-4                
1 41619U 16040W   19264.63878258  .00000892  00000-0  40463-4 0  9991
2 41619  97.3586 325.0566 0012625  55.3684 304.8741 15.23303246168310
PSLV R/B                
1 41620U 16040X   19264.37151447  .00001097  00000-0  30476-4 0  9999
2 41620  97.4402 359.5999 0021503 341.9694  18.0786 15.38964259182178
PSLV DEB                
1 41621U 16040Y   19264.16319791  .00002046  00000-0  79075-4 0  9998
2 41621  97.3695 329.3976 0012223  50.2606 309.9708 15.27329767180579